BAW15A EGLL-WSSS

Flight info

Callsign BAW15A
Flight time N/A
Altitude 35000
Route DET L6 DVR L9 KONAN UL607 FERDI DCT MATUG DCT GUBAX DCT KOMIB L984 SULUS Z650 VEMUT DCT DITIS DCT ERGOM DCT BUDOP DCT UDROS UM859 KARDE UL851 OLUPO/N0486F370 UL851 TBN UR317 REBLO M11 LUSAL N199 BAKUV N701 LARGI B701 KRS A240 INRAK B449 DOLOS B475 RUBAD A846 RANAH L750 ZB G202 RK P628 ISKEN/N0495F390 P628 IBANI L510 GIVAL P628 VPL Y503 RINBA Y507 MAKNA Y511 TOPOR A464 ARAMA DCT TEBUN TEBUN1A
Aircraft A388/J-SADE2E3FGHIJ3J4J5M1RWXY/LB1D1

Departure

Time 2026-04-30 21:14
Airport London Heathrow Airport (EGLL)

Arrival

Time N/A
Airport Singapore Changi Airport (WSSS)
Time Latitude Longitude Altitude Speed Heading
2026-04-30 20:51 51.46980 -0.48000 94 ft 0 kts 269°
2026-04-30 21:01 51.46981 -0.47971 96 ft 4 kts 269°
2026-04-30 21:02 51.46985 -0.47939 94 ft 4 kts 250°
2026-04-30 21:02 51.47003 -0.47899 96 ft 4 kts 223°
2026-04-30 21:02 51.47032 -0.47882 94 ft 4 kts 185°
2026-04-30 21:02 51.47035 -0.47882 96 ft 0 kts 184°
2026-04-30 21:06 51.47034 -0.47882 94 ft 0 kts 184°
2026-04-30 21:06 51.47033 -0.47882 94 ft 1 kts 184°
2026-04-30 21:06 51.47031 -0.47882 94 ft 0 kts 184°
2026-04-30 21:07 51.47029 -0.47883 94 ft 0 kts 184°
2026-04-30 21:07 51.47027 -0.47883 94 ft 0 kts 184°
2026-04-30 21:07 51.47026 -0.47883 94 ft 0 kts 184°
2026-04-30 21:07 51.47024 -0.47883 94 ft 0 kts 184°
2026-04-30 21:08 51.47022 -0.47883 94 ft 0 kts 184°
2026-04-30 21:08 51.47021 -0.47884 94 ft 0 kts 184°
2026-04-30 21:08 51.47005 -0.47885 94 ft 5 kts 184°
2026-04-30 21:08 51.46955 -0.47880 95 ft 12 kts 170°
2026-04-30 21:09 51.46846 -0.47867 94 ft 0 kts 179°
2026-04-30 21:09 51.46817 -0.47867 94 ft 7 kts 181°
2026-04-30 21:09 51.46729 -0.47870 94 ft 0 kts 181°
2026-04-30 21:09 51.46709 -0.47872 94 ft 6 kts 194°
2026-04-30 21:10 51.46666 -0.47932 94 ft 11 kts 245°
2026-04-30 21:10 51.46653 -0.48045 96 ft 0 kts 271°
2026-04-30 21:10 51.46654 -0.48057 96 ft 3 kts 271°
2026-04-30 21:10 51.46654 -0.48059 96 ft 0 kts 271°
2026-04-30 21:11 51.46654 -0.48107 97 ft 21 kts 270°
2026-04-30 21:11 51.46654 -0.48416 99 ft 24 kts 269°
2026-04-30 21:12 51.46651 -0.48664 98 ft 8 kts 258°
2026-04-30 21:12 51.46621 -0.48738 99 ft 5 kts 208°
2026-04-30 21:12 51.46620 -0.48739 99 ft 0 kts 208°
2026-04-30 21:13 51.46585 -0.48769 99 ft 23 kts 205°
2026-04-30 21:13 51.46493 -0.48705 98 ft 11 kts 108°
2026-04-30 21:13 51.46478 -0.48571 98 ft 13 kts 91°
2026-04-30 21:13 51.46478 -0.48252 99 ft 72 kts 90°
2026-04-30 21:14 51.46484 -0.46906 99 ft 159 kts 90°
2026-04-30 21:14 51.46481 -0.44998 684 ft 174 kts 90°
2026-04-30 21:14 51.46482 -0.43018 1350 ft 184 kts 93°
2026-04-30 21:14 51.46486 -0.40884 1891 ft 197 kts 95°
2026-04-30 21:15 51.46481 -0.38559 2408 ft 222 kts 96°
2026-04-30 21:15 51.46152 -0.36086 3217 ft 235 kts 120°
2026-04-30 21:15 51.45263 -0.33866 4141 ft 245 kts 127°
2026-04-30 21:15 51.44245 -0.31552 5073 ft 257 kts 125°
2026-04-30 21:16 51.43358 -0.29061 6074 ft 263 kts 118°
2026-04-30 21:16 51.42725 -0.26276 7031 ft 270 kts 107°
2026-04-30 21:16 51.42275 -0.23340 8059 ft 273 kts 105°
2026-04-30 21:16 51.41864 -0.20364 9081 ft 276 kts 104°
2026-04-30 21:17 51.41459 -0.17346 10095 ft 279 kts 104°
2026-04-30 21:17 51.41043 -0.14268 10832 ft 289 kts 105°
2026-04-30 21:17 51.40603 -0.11100 11591 ft 294 kts 105°
2026-04-30 21:17 51.40152 -0.07886 12426 ft 297 kts 106°
2026-04-30 21:18 51.39694 -0.04652 13252 ft 300 kts 106°
2026-04-30 21:18 51.39231 -0.01380 14027 ft 303 kts 106°
2026-04-30 21:18 51.38762 0.01915 14711 ft 306 kts 106°
2026-04-30 21:18 51.38286 0.05261 15392 ft 309 kts 106°
2026-04-30 21:19 51.37804 0.08644 16079 ft 313 kts 106°
2026-04-30 21:19 51.37314 0.12059 16774 ft 317 kts 106°
2026-04-30 21:19 51.36813 0.15516 17499 ft 321 kts 106°
2026-04-30 21:19 51.36305 0.19014 18234 ft 324 kts 106°
2026-04-30 21:20 51.35795 0.22545 18921 ft 328 kts 106°
2026-04-30 21:20 51.35286 0.26097 19642 ft 329 kts 106°
2026-04-30 21:20 51.34774 0.29669 20355 ft 332 kts 106°
2026-04-30 21:20 51.34251 0.33298 21018 ft 337 kts 106°
2026-04-30 21:21 51.33716 0.36989 21476 ft 347 kts 106°
2026-04-30 21:21 51.33145 0.40901 21255 ft 376 kts 106°
2026-04-30 21:21 51.31893 0.49465 21182 ft 413 kts 105°
2026-04-30 21:22 51.31230 0.54009 21190 ft 428 kts 105°
2026-04-30 21:22 51.28819 0.68373 21195 ft 464 kts 108°
2026-04-30 21:23 51.27904 0.73371 21201 ft 476 kts 108°
2026-04-30 21:23 51.27003 0.78359 22460 ft 456 kts 108°
2026-04-30 21:23 51.25307 0.88012 23802 ft 450 kts 107°
2026-04-30 21:24 51.24501 0.92788 24277 ft 442 kts 106°
2026-04-30 21:24 51.23719 0.97539 24627 ft 448 kts 105°
2026-04-30 21:24 51.22940 1.02404 25012 ft 457 kts 105°
2026-04-30 21:24 51.22166 1.07368 25407 ft 466 kts 105°
2026-04-30 21:25 51.20633 1.17565 26208 ft 478 kts 104°
2026-04-30 21:25 51.19891 1.22687 26627 ft 482 kts 104°
2026-04-30 21:25 51.18958 1.27843 27519 ft 475 kts 112°
2026-04-30 21:26 51.16623 1.37414 30139 ft 450 kts 106°
2026-04-30 21:26 51.16087 1.42178 31373 ft 439 kts 99°
2026-04-30 21:27 51.15486 1.51944 32320 ft 448 kts 97°
2026-04-30 21:27 51.15242 1.56912 32791 ft 451 kts 97°
2026-04-30 21:27 51.15003 1.61900 33261 ft 454 kts 97°
2026-04-30 21:28 51.14510 1.72028 34194 ft 461 kts 97°
2026-04-30 21:28 51.14255 1.77128 34595 ft 465 kts 97°
2026-04-30 21:28 51.13731 1.87435 35573 ft 467 kts 97°
2026-04-30 21:29 51.13466 1.92559 36065 ft 467 kts 96°
2026-04-30 21:29 51.12651 2.08084 37220 ft 477 kts 96°
2026-04-30 21:30 51.12071 2.18851 37227 ft 500 kts 96°
2026-04-30 21:31 51.11140 2.35835 37829 ft 516 kts 96°
2026-04-30 21:31 51.10529 2.46963 39674 ft 498 kts 96°
2026-04-30 21:32 51.09929 2.57918 40492 ft 498 kts 96°
2026-04-30 21:32 51.09629 2.63389 40930 ft 498 kts 96°
2026-04-30 21:32 51.09328 2.68887 41345 ft 498 kts 95°
2026-04-30 21:32 51.09027 2.74371 41730 ft 498 kts 95°
2026-04-30 21:33 51.08724 2.79868 42120 ft 498 kts 95°
2026-04-30 21:33 51.08119 2.90839 42914 ft 498 kts 95°
2026-04-30 21:33 51.07815 2.96330 43320 ft 498 kts 95°
2026-04-30 21:34 51.07512 3.01809 43720 ft 497 kts 95°
2026-04-30 21:34 51.06905 3.12745 44525 ft 496 kts 95°
2026-04-30 21:34 51.06601 3.18208 44911 ft 495 kts 94°
2026-04-30 21:35 51.06297 3.23656 45253 ft 494 kts 94°
2026-04-30 21:35 51.05995 3.29075 45584 ft 493 kts 94°
2026-04-30 21:35 51.05692 3.34498 45901 ft 492 kts 94°
2026-04-30 21:35 51.05389 3.39903 46217 ft 490 kts 94°
2026-04-30 21:36 51.05086 3.45290 46529 ft 489 kts 94°
2026-04-30 21:36 51.04769 3.50663 46794 ft 488 kts 97°
2026-04-30 21:37 51.00646 3.65476 46795 ft 504 kts 131°
2026-04-30 21:37 50.98151 3.69325 46806 ft 509 kts 142°
2026-04-30 21:37 50.92241 3.75725 46768 ft 520 kts 140°
2026-04-30 21:38 50.89642 3.79721 46768 ft 525 kts 129°
2026-04-30 21:38 50.87506 3.84507 46733 ft 529 kts 118°
2026-04-30 21:38 50.85035 3.95426 46702 ft 537 kts 99°
2026-04-30 21:39 50.84372 4.01332 46885 ft 536 kts 99°
2026-04-30 21:39 50.83754 4.06975 47787 ft 523 kts 98°
2026-04-30 21:39 50.83137 4.12591 48440 ft 514 kts 99°
2026-04-30 21:39 50.82525 4.18155 48843 ft 511 kts 99°
2026-04-30 21:40 50.81918 4.23670 49080 ft 510 kts 99°
2026-04-30 21:40 50.81309 4.29201 49293 ft 510 kts 99°
2026-04-30 21:40 50.80700 4.34732 49468 ft 510 kts 98°
2026-04-30 21:40 50.80092 4.40254 49646 ft 510 kts 98°